Weather History for KFOA - March, 2013

Change the Weather History Date:

Thursday, March 21, 2013

  Actual Average (KEVV) Record (KEVV)
Temperature  
Mean Temperature 26 °F 48 °F  
Max Temperature 33 °F 59 °F 83 °F (2012)
Min Temperature 20 °F 37 °F 21 °F (1986)
Degree Days  
Heating Degree Days 39 17  
Month to date heating degree days 434  
Since 1 July heating degree days 4008  
Cooling Degree Days 0 0  
Month to date cooling degree days 0  
Year to date cooling degree days 0  
Moisture  
Dew Point 15 °F    
Average Humidity 62    
Maximum Humidity 87    
Minimum Humidity 48    
Precipitation  
Precipitation 0.00 in 0.15 in 1.68 in (1952)
Month to date precipitation 2.76  
Year to date precipitation 9.03  
Snow  
Snow 0.00 in 0.00 in 1.90 in (1984)
Month to date snowfall 0.8  
Since 1 July snowfall 11.5  
Snow Depth -    
Sea Level Pressure  
Sea Level Pressure 30.08 in    
Wind  
Wind Speed 5 mph (North)    
Max Wind Speed 10 mph    
Max Gust Speed -    
Visibility 10 miles    
Events      
T = Trace of Precipitation, MM = Missing Value Source: NWS Daily Summary

Daily Weather History Graph

Daily Weather History Graph

Search for Another Location

Airport or City:

Trip Planner

Search our weather history database for the weather conditions in past years. The results will help you decide how hot, cold, wet, or windy it might be!

Date:

Astronomy

Mar. 21, 2013 Rise Set
Actual Time 6:55 AM CDT 7:06 PM CDT
Civil Twilight 6:28 AM CDT 7:33 PM CDT
Nautical Twilight 5:57 AM CDT 8:04 PM CDT
Astronomical Twilight 5:26 AM CDT 8:36 PM CDT
Moon 1:39 PM CDT (3/21) 3:13 AM CDT (3/21)
Length of Visible Light 13h 04m
Length of Day
12h 11m
Waxing Gibbous, 69% of the Moon is Illuminated
Mar 21
Waxing Gibbous
Mar 27
Full
Apr 2
Last Quarter
Apr 10
New
Apr 18
First Quarter

Hourly Weather History & Observations

Time (CDT) Temp. Windchill Dew Point Humidity Pressure Visibility Wind Dir Wind Speed Gust Speed Precip Events Conditions
12:31 AM 24.8 °F 19.1 °F 15.8 °F 69% 30.10 in 10.0 mi NNW 4.6 mph - N/A   Clear
12:55 AM 24.3 °F 18.4 °F 14.2 °F 65% 30.10 in 10.0 mi NNW 4.6 mph - N/A   Clear
1:15 AM 24.1 °F 17.0 °F 13.6 °F 64% 30.10 in 10.0 mi NNW 5.8 mph - N/A   Clear
1:35 AM 24.8 °F 16.9 °F 14.0 °F 64% 30.10 in 10.0 mi NNW 6.9 mph - N/A   Clear
1:55 AM 23.9 °F 15.0 °F 12.7 °F 62% 30.10 in 10.0 mi NNW 8.1 mph - N/A   Clear
2:15 AM 23.9 °F 15.8 °F 12.7 °F 62% 30.10 in 10.0 mi NNW 6.9 mph - N/A   Clear
2:35 AM 23.0 °F 15.8 °F 13.3 °F 66% 30.10 in 10.0 mi NNW 5.8 mph - N/A   Clear
2:55 AM 22.6 °F 16.5 °F 13.1 °F 67% 30.10 in 10.0 mi NNW 4.6 mph - N/A   Clear
3:15 AM 22.6 °F 15.3 °F 13.1 °F 67% 30.08 in 10.0 mi NNW 5.8 mph - N/A   Clear
3:35 AM 22.5 °F 13.2 °F 12.4 °F 65% 30.08 in 10.0 mi NNW 8.1 mph - N/A   Clear
3:55 AM 22.1 °F 12.8 °F 12.2 °F 66% 30.08 in 10.0 mi NW 8.1 mph - N/A   Clear
4:15 AM 21.7 °F 12.3 °F 12.2 °F 67% 30.07 in 10.0 mi NW 8.1 mph - N/A   Clear
4:35 AM 21.2 °F 12.6 °F 12.2 °F 68% 30.07 in 10.0 mi NW 6.9 mph - N/A   Clear
4:55 AM 21.9 °F 12.5 °F 12.2 °F 66% 30.08 in 10.0 mi NW 8.1 mph - N/A   Clear
5:15 AM 21.7 °F 12.3 °F 12.6 °F 68% 30.08 in 10.0 mi NW 8.1 mph - N/A   Clear
5:35 AM 21.7 °F 11.5 °F 11.8 °F 66% 30.08 in 10.0 mi NW 9.2 mph - N/A   Clear
5:55 AM 21.2 °F 11.7 °F 12.2 °F 68% 30.07 in 10.0 mi NNW 8.1 mph - N/A   Clear
6:15 AM 21.0 °F 11.4 °F 12.0 °F 68% 30.07 in 10.0 mi NNW 8.1 mph - N/A   Clear
6:35 AM 20.8 °F 13.2 °F 12.0 °F 69% 30.09 in 10.0 mi NNW 5.8 mph - N/A   Clear
6:55 AM 20.5 °F 10.8 °F 11.8 °F 69% 30.09 in 10.0 mi NNW 8.1 mph - N/A   Clear
7:15 AM 20.8 °F 12.1 °F 12.0 °F 69% 30.10 in 10.0 mi NNW 6.9 mph - N/A   Clear
7:35 AM 21.2 °F 10.9 °F 12.4 °F 69% 30.11 in 10.0 mi NNW 9.2 mph - N/A   Clear
7:55 AM 21.7 °F 12.3 °F 12.9 °F 69% 30.11 in 10.0 mi NNW 8.1 mph - N/A   Clear
8:15 AM 22.1 °F 11.3 °F 13.3 °F 69% 30.11 in 10.0 mi NNW 10.4 mph - N/A   Scattered Clouds
8:35 AM 22.3 °F 12.2 °F 12.4 °F 66% 30.11 in 10.0 mi NW 9.2 mph - N/A   Scattered Clouds
8:55 AM 22.6 °F 13.4 °F 12.0 °F 64% 30.12 in 10.0 mi NNW 8.1 mph - N/A   Scattered Clouds
9:15 AM 23.9 °F 18.0 °F 12.7 °F 62% 30.12 in 10.0 mi North 4.6 mph - N/A   Mostly Cloudy
9:35 AM 24.1 °F 15.2 °F 13.3 °F 63% 30.13 in 10.0 mi NNE 8.1 mph - N/A   Overcast
9:55 AM 25.0 °F 16.3 °F 14.0 °F 63% 30.13 in 10.0 mi NNE 8.1 mph - N/A   Overcast
10:15 AM 23.9 °F 15.8 °F 13.1 °F 63% 30.13 in 10.0 mi North 6.9 mph - N/A   Overcast
10:35 AM 23.7 °F 17.8 °F 11.8 °F 61% 30.14 in 10.0 mi North 4.6 mph - N/A   Overcast
10:55 AM 24.6 °F 16.7 °F 12.9 °F 61% 30.13 in 10.0 mi NNW 6.9 mph - N/A   Overcast
11:15 AM 24.8 °F - 12.7 °F 60% 30.13 in 10.0 mi Calm Calm - N/A   Mostly Cloudy
11:35 AM 25.2 °F - 12.9 °F 60% 30.12 in 10.0 mi Calm Calm - N/A   Mostly Cloudy
11:55 AM 26.6 °F 22.6 °F 14.4 °F 60% 30.12 in 10.0 mi West 3.5 mph - N/A   Unknown
12:15 PM 27.9 °F 21.5 °F 14.7 °F 58% 30.11 in 10.0 mi North 5.8 mph - N/A   Unknown
12:35 PM 27.3 °F 22.0 °F 12.9 °F 55% 30.12 in 10.0 mi North 4.6 mph - N/A   Unknown
12:55 PM 28.2 °F 24.4 °F 14.9 °F 57% 30.11 in 10.0 mi North 3.5 mph - N/A   Unknown
1:15 PM 29.3 °F 24.3 °F 15.1 °F 55% 30.11 in 10.0 mi NNE 4.6 mph - N/A   Unknown
1:35 PM 29.3 °F 23.2 °F 14.2 °F 53% 30.10 in 10.0 mi WNW 5.8 mph - N/A   Clear
1:55 PM 30.4 °F 26.9 °F 15.1 °F 53% 30.09 in 10.0 mi NE 3.5 mph - N/A   Unknown
2:15 PM 30.0 °F - 13.8 °F 51% 30.08 in 10.0 mi Calm Calm - N/A   Unknown
2:35 PM 31.5 °F 26.8 °F 14.7 °F 50% 30.07 in 10.0 mi NE 4.6 mph - N/A   Unknown
2:55 PM 32.0 °F 26.4 °F 15.3 °F 50% 30.06 in 10.0 mi East 5.8 mph - N/A   Unknown
3:15 PM 32.0 °F 26.4 °F 15.4 °F 51% 30.05 in 10.0 mi East 5.8 mph - N/A   Unknown
3:35 PM 32.0 °F - 15.8 °F 51% 30.04 in 10.0 mi Calm Calm - N/A   Clear
3:55 PM 32.2 °F - 15.1 °F 49% 30.04 in 10.0 mi Calm Calm - N/A   Clear
4:15 PM 32.5 °F - 16.0 °F 51% 30.04 in 10.0 mi Calm Calm - N/A   Unknown
4:35 PM 32.5 °F 29.3 °F 15.4 °F 49% 30.03 in 10.0 mi SSE 3.5 mph - N/A   Unknown
4:55 PM 32.0 °F 28.7 °F 14.4 °F 48% 30.02 in 10.0 mi ENE 3.5 mph - N/A   Unknown
5:15 PM 32.2 °F 27.7 °F 14.9 °F 49% 30.02 in 10.0 mi ENE 4.6 mph - N/A   Unknown
5:35 PM 32.0 °F 27.5 °F 14.4 °F 48% 30.02 in 10.0 mi ENE 4.6 mph - N/A   Clear
5:55 PM 32.4 °F 29.1 °F 14.5 °F 48% 30.03 in 10.0 mi ENE 3.5 mph - N/A   Clear
6:15 PM 32.2 °F 27.7 °F 16.2 °F 52% 30.03 in 10.0 mi NE 4.6 mph - N/A   Clear
6:35 PM 32.0 °F 27.5 °F 17.1 °F 54% 30.04 in 10.0 mi East 4.6 mph - N/A   Clear
6:55 PM 31.6 °F 28.3 °F 18.0 °F 57% 30.04 in 10.0 mi ESE 3.5 mph - N/A   Clear
7:15 PM 31.1 °F 27.7 °F 16.9 °F 56% 30.05 in 10.0 mi ESE 3.5 mph - N/A   Clear
7:35 PM 30.2 °F - 18.9 °F 63% 30.05 in 10.0 mi Calm Calm - N/A   Clear
7:55 PM 30.6 °F - 17.2 °F 58% 30.06 in 10.0 mi Calm Calm - N/A   Clear
8:15 PM 29.7 °F - 18.9 °F 64% 30.05 in 10.0 mi Calm Calm - N/A   Clear
8:35 PM 29.3 °F - 20.3 °F 69% 30.06 in 10.0 mi Calm Calm - N/A   Clear
8:55 PM 29.8 °F 26.3 °F 17.2 °F 59% 30.06 in 10.0 mi East 3.5 mph - N/A   Clear
9:15 PM 29.7 °F 26.1 °F 18.5 °F 63% 30.06 in 10.0 mi East 3.5 mph - N/A   Clear
9:35 PM 28.9 °F 25.2 °F 18.3 °F 65% 30.06 in 10.0 mi East 3.5 mph - N/A   Clear
9:55 PM 29.3 °F 25.6 °F 20.5 °F 70% 30.06 in 10.0 mi ENE 3.5 mph - N/A   Clear
10:15 PM 28.9 °F 25.2 °F 19.6 °F 68% 30.06 in 10.0 mi ENE 3.5 mph - N/A   Clear
10:35 PM 28.6 °F 24.8 °F 19.4 °F 69% 30.06 in 10.0 mi ENE 3.5 mph - N/A   Clear
10:55 PM 28.2 °F 24.4 °F 20.1 °F 72% 30.06 in 10.0 mi ENE 3.5 mph - N/A   Clear
11:15 PM 27.5 °F 23.6 °F 21.2 °F 77% 30.05 in 10.0 mi ENE 3.5 mph - N/A   Clear
11:35 PM 27.0 °F 23.0 °F 21.6 °F 80% 30.05 in 10.0 mi East 3.5 mph - N/A   Clear
11:55 PM 24.6 °F - 21.4 °F 87% 30.05 in 10.0 mi Calm Calm - N/A   Clear